Asyut, Egypt

3:09 PM EET on August 23, 2017 (GMT +0200)
Asyut

Weather History for HEAT - October, 2012

Change the Weather History Date:

Tuesday, October 30, 2012

  Actual Average Record
Temperature  
Mean Temperature 74 °F -  
Max Temperature 90 °F 77 °F - ()
Min Temperature 57 °F 51 °F - ()
Cooling Degree Days 8    
Growing Degree Days 24 (Base 50)    
Moisture  
Dew Point 48 °F    
Average Humidity 41    
Maximum Humidity 63    
Minimum Humidity 16    
Precipitation  
Precipitation 0.00 in 0.00 in - ()
Sea Level Pressure  
Sea Level Pressure 29.90 in    
Wind  
Wind Speed 5 mph ()    
Max Wind Speed 12 mph    
Max Gust Speed -    
Visibility 6.0 miles    
Events      
T = Trace of Precipitation, MM = Missing Value Source: Averaged Metar Reports

Daily Weather History Graph

Daily Weather History Graph

Search for Another Location

Airport or City:

Trip Planner

Search our weather history database for the weather conditions in past years. The results will help you decide how hot, cold, wet, or windy it might be!

Date:

Astronomy

Oct. 30, 2012 Rise Set
Actual Time 6:04 AM EET 5:14 PM EET
Civil Twilight 5:40 AM EET 5:37 PM EET
Nautical Twilight 5:13 AM EET 6:05 PM EET
Astronomical Twilight 4:46 AM EET 6:32 PM EET
Moon 5:37 PM EET (10/30) 6:27 AM EET (10/30)
Length of Visible Light 11h 57m
Length of Day
11h 09m
Full, 100% of the Moon is Illuminated
Oct 30
Full
Nov 7
Last Quarter
Nov 14
New
Nov 20
First Quarter
Nov 28
Full

Hourly Weather History & Observations

Time (EET) Temp. Dew Point Humidity Pressure Visibility Wind Dir Wind Speed Gust Speed Precip Events Conditions
12:00 AM 66.2 °F 48.2 °F 52% 29.92 in - NNW 3.5 mph - N/A   Clear
1:00 AM 64.4 °F 48.2 °F 56% 29.92 in - NW 5.8 mph - N/A   Clear
2:00 AM 63 °F 47 °F 44% 29.90 in 6 mi NW 2.3 mph - -  
2:00 AM 62.6 °F 46.4 °F 55% 29.92 in - NW 2.3 mph - N/A   Clear
3:00 AM 60.8 °F 46.4 °F 59% 29.92 in - NW 1.2 mph - N/A   Clear
4:00 AM 59.0 °F 46.4 °F 63% 29.92 in - NNW 3.5 mph - N/A   Clear
5:00 AM 59.0 °F 46.4 °F 63% 29.89 in - Calm Calm - N/A   Clear
6:00 AM 59.0 °F 46.4 °F 63% 29.92 in - West 4.6 mph - N/A   Clear
7:00 AM 57.2 °F 42.8 °F 59% 29.92 in - SSW 3.5 mph - N/A   Clear
8:00 AM 64 °F 41 °F 32% 29.93 in 6 mi SW 3.5 mph - -  
8:00 AM 64.4 °F 41.0 °F 42% 29.95 in - SW 3.5 mph - N/A   Clear
9:00 AM 71.6 °F 48.2 °F 43% 29.95 in - WNW 5.8 mph - N/A   Clear
10:00 AM 77.0 °F 50.0 °F 39% 29.95 in - WNW 5.8 mph - N/A   Clear
11:00 AM 82.4 °F 48.2 °F 30% 29.92 in - NW 6.9 mph - N/A   Clear
12:00 PM 86.0 °F 48.2 °F 27% 29.89 in - NW 9.2 mph - N/A   Clear
1:00 PM 87.8 °F 50.0 °F 27% 29.89 in - NW 8.1 mph - N/A   Clear
2:00 PM 89 °F 49 °F 16% 29.83 in 6 mi WNW 9.2 mph - -  
2:00 PM 87.8 °F 50.0 °F 27% 29.86 in - WNW 9.2 mph - N/A   Clear
3:00 PM 89.6 °F 50.0 °F 26% 29.86 in - NW 11.5 mph - N/A   Clear
4:00 PM 89.6 °F 51.8 °F 27% 29.86 in - NNW 8.1 mph - N/A   Clear
5:00 PM 84.2 °F 46.4 °F 27% 29.86 in - NNW 8.1 mph - N/A   Clear
6:00 PM 82.4 °F 46.4 °F 28% 29.86 in - NW 8.1 mph - N/A   Clear
7:00 PM 75.2 °F 48.2 °F 38% 29.89 in - WNW 10.4 mph - N/A   Clear
8:00 PM 73 °F 49 °F 31% 29.88 in 6 mi WNW 8.1 mph - -  
8:00 PM 73.4 °F 48.2 °F 41% 29.89 in - WNW 8.1 mph - N/A   Clear
9:00 PM 71.6 °F 50.0 °F 46% 29.92 in - WNW 5.8 mph - N/A   Clear
10:00 PM 69.8 °F 50.0 °F 49% 29.92 in - North 8.1 mph - N/A   Clear
11:00 PM 68.0 °F 48.2 °F 49% 29.92 in - WNW 5.8 mph - N/A   Clear